| time (UTC) | temp F | wind direction | speed MPH | gust MPH | rain 1hr in | rain 24hr in | rain mn in | humidity % | barometer mb |
| 20260505090004 | 58 | 251 | 0.0 | 2.0 | 0.00 | 0.00 | 0.00 | 86 | 1015.4 |
| 20260505084504 | 58 | 179 | 0.0 | 1.0 | 0.00 | 0.00 | 0.00 | 86 | 1015.2 |
| 20260505083003 | 58 | 199 | 0.0 | 2.0 | 0.00 | 0.00 | 0.00 | 86 | 1015.4 |
| 20260505081503 | 58 | 161 | 0.0 | 3.0 | 0.00 | 0.00 | 0.00 | 86 | 1015.3 |
| 20260505080004 | 58 | 0 | 0.0 | 0.0 | 0.00 | 0.00 | 0.00 | 85 | 1015.1 |
| 20260505074505 | 58 | 232 | 0.0 | 1.0 | 0.00 | 0.00 | 0.00 | 85 | 1015.0 |
| 20260505073005 | 58 | 250 | 0.0 | 2.0 | 0.00 | 0.00 | 0.00 | 85 | 1015.0 |
| 20260505071505 | 58 | 121 | 0.0 | 1.0 | 0.00 | 0.00 | 0.00 | 84 | 1015.0 |
| 20260505070005 | 59 | 205 | 0.0 | 1.0 | 0.00 | 0.00 | 0.00 | 83 | 1014.8 |
| 20260505064505 | 59 | 214 | 0.0 | 1.0 | 0.00 | 0.00 | 0.00 | 82 | 1014.8 |
| 20260505063006 | 60 | 253 | 0.0 | 1.0 | 0.00 | 0.00 | 0.00 | 80 | 1014.8 |
| 20260505061506 | 60 | 236 | 0.0 | 2.0 | 0.00 | 0.00 | 0.00 | 79 | 1015.0 |
| 20260505060005 | 61 | 257 | 0.0 | 2.0 | 0.00 | 0.00 | 0.00 | 78 | 1015.0 |
| 20260505054505 | 61 | 250 | 0.0 | 1.0 | 0.00 | 0.00 | 0.00 | 77 | 1015.1 |
| 20260505053005 | 62 | 207 | 0.0 | 4.0 | 0.00 | 0.00 | 0.00 | 76 | 1015.1 |
| 20260505051505 | 62 | 154 | 0.0 | 3.0 | 0.00 | 0.00 | 0.00 | 75 | 1015.1 |
| 20260505041505 | 64 | 180 | 1.0 | 5.0 | 0.00 | 0.00 | 0.00 | 71 | 1015.2 |
| 20260505040006 | 64 | 187 | 1.0 | 7.0 | 0.00 | 0.00 | 0.00 | 71 | 1015.2 |
| 20260505034506 | 64 | 199 | 1.0 | 6.0 | 0.00 | 0.00 | 0.00 | 70 | 1015.2 |
| 20260505033005 | 64 | 249 | 1.0 | 5.0 | 0.00 | 0.00 | 0.00 | 70 | 1015.0 |
| 20260505031505 | 64 | 213 | 1.0 | 6.0 | 0.00 | 0.00 | 0.00 | 69 | 1014.9 |
| 20260505030005 | 65 | 235 | 1.0 | 5.0 | 0.00 | 0.00 | 0.00 | 69 | 1015.0 |
| 20260505024505 | 65 | 204 | 1.0 | 9.0 | 0.00 | 0.00 | 0.00 | 69 | 1015.0 |
| 20260505023005 | 65 | 191 | 1.0 | 6.0 | 0.00 | 0.00 | 0.00 | 70 | 1015.0 |
| 20260505021505 | 65 | 242 | 1.0 | 8.0 | 0.00 | 0.00 | 0.00 | 69 | 1015.1 |
| 20260505020026 | 65 | 233 | 2.0 | 6.0 | 0.00 | 0.00 | 0.00 | 69 | 1015.0 |
| 20260505014505 | 66 | 195 | 1.0 | 11.0 | 0.00 | 0.00 | 0.00 | 68 | 1014.9 |
| 20260505013005 | 66 | 240 | 1.0 | 8.0 | 0.00 | 0.00 | 0.00 | 68 | 1014.8 |
| 20260505011526 | 66 | 216 | 1.0 | 6.0 | 0.00 | 0.00 | 0.00 | 68 | 1014.6 |
| 20260505010005 | 67 | 201 | 1.0 | 9.0 | 0.00 | 0.00 | 0.00 | 68 | 1014.3 |
| 20260505004526 | 67 | 252 | 1.0 | 7.0 | 0.00 | 0.00 | 0.00 | 67 | 1014.1 |
| 20260505003027 | 67 | 245 | 2.0 | 4.0 | 0.00 | 0.00 | 0.00 | 67 | 1014.1 |
| 20260505001506 | 68 | 245 | 1.0 | 7.0 | 0.00 | 0.00 | 0.00 | 66 | 1013.8 |
| 20260505000004 | 68 | 236 | 1.0 | 9.0 | 0.00 | 0.00 | 0.00 | 67 | 1013.6 |
| 20260504234504 | 69 | 236 | 1.0 | 7.0 | 0.00 | 0.00 | 0.00 | 66 | 1013.5 |
| 20260504233005 | 69 | 237 | 2.0 | 7.0 | 0.00 | 0.00 | 0.00 | 65 | 1013.1 |
| 20260504231505 | 70 | 268 | 3.0 | 9.0 | 0.00 | 0.00 | 0.00 | 64 | 1013.1 |
| 20260504230006 | 70 | 240 | 2.0 | 7.0 | 0.00 | 0.00 | 0.00 | 63 | 1012.9 |
| 20260504224525 | 71 | 236 | 3.0 | 10.0 | 0.00 | 0.00 | 0.00 | 62 | 1012.8 |
| 20260504223004 | 71 | 250 | 2.0 | 11.0 | 0.00 | 0.00 | 0.00 | 61 | 1012.8 |
| 20260504221504 | 72 | 249 | 2.0 | 11.0 | 0.00 | 0.00 | 0.00 | 61 | 1012.9 |
| 20260504220005 | 72 | 231 | 3.0 | 10.0 | 0.00 | 0.00 | 0.00 | 60 | 1012.9 |
| 20260504214505 | 73 | 271 | 3.0 | 12.0 | 0.00 | 0.00 | 0.00 | 59 | 1013.0 |
| 20260504213005 | 74 | 267 | 2.0 | 8.0 | 0.00 | 0.00 | 0.00 | 57 | 1013.0 |
| 20260504211504 | 75 | 266 | 2.0 | 13.0 | 0.00 | 0.00 | 0.00 | 55 | 1013.0 |
| 20260504210004 | 76 | 251 | 2.0 | 12.0 | 0.00 | 0.00 | 0.00 | 52 | 1013.1 |
| 20260504204525 | 77 | 249 | 3.0 | 8.0 | 0.00 | 0.00 | 0.00 | 51 | 1013.1 |
| 20260504203004 | 79 | 175 | 1.0 | 10.0 | 0.00 | 0.00 | 0.00 | 40 | 1013.0 |
| 20260504201505 | 78 | 246 | 2.0 | 9.0 | 0.00 | 0.00 | 0.00 | 42 | 1013.1 |
| 20260504200004 | 79 | 254 | 1.0 | 8.0 | 0.00 | 0.00 | 0.00 | 40 | 1013.0 |
| 20260504194505 | 80 | 189 | 1.0 | 5.0 | 0.00 | 0.00 | 0.00 | 43 | 1013.1 |
| 20260504193004 | 78 | 233 | 1.0 | 7.0 | 0.00 | 0.00 | 0.00 | 41 | 1013.3 |
| 20260504191504 | 79 | 241 | 1.0 | 9.0 | 0.00 | 0.00 | 0.00 | 40 | 1013.5 |
| 20260504190004 | 78 | 255 | 2.0 | 6.0 | 0.00 | 0.00 | 0.00 | 43 | 1013.7 |
| 20260504184526 | 78 | 221 | 2.0 | 7.0 | 0.00 | 0.00 | 0.00 | 44 | 1014.0 |
| 20260504183026 | 77 | 205 | 2.0 | 8.0 | 0.00 | 0.00 | 0.00 | 44 | 1014.2 |
| 20260504181504 | 76 | 214 | 2.0 | 9.0 | 0.00 | 0.00 | 0.00 | 43 | 1014.5 |
| 20260504180004 | 76 | 221 | 2.0 | 8.0 | 0.00 | 0.00 | 0.00 | 43 | 1014.6 |
| 20260504174505 | 77 | 189 | 1.0 | 8.0 | 0.00 | 0.00 | 0.00 | 43 | 1014.7 |
| 20260504173005 | 76 | 190 | 2.0 | 12.0 | 0.00 | 0.00 | 0.00 | 46 | 1014.9 |
| 20260504171504 | 75 | 201 | 2.0 | 11.0 | 0.00 | 0.00 | 0.00 | 47 | 1015.1 |